Weather in Svinchus

Russia / Ryazan Oblast     54°34′18″N   41°05′01″E
temp.,
°C
wind,
m/s
gust,
m/s
humid.,
%
clouds,
%
prec.,
mm/h
press.,
hPa
HPBL,
m
7 march, sun
sun700:00−13wsw349422 0.0 101540
03:00−15sw349111 0.0 101364
06:00−14ssw499332 0.0 1011160
09:00−8ssw8168566 0.0 1007552
12:00−5sw101694100 0.9 1003992
15:00−4sw101694100 3.3 9981213
18:00−3sw91595100 2.3 995991
21:00−1sw101695100 3.6 992961
8 march, mon
mon800:00−9wsw489384 0.1 993130
03:00−8wsw7168174 0.1 997530
06:00−11wsw499213 0.0 998202
09:00−9wsw5109125 0.0 999436
12:00−5wsw7109093 0.1 9991003
15:00−4w7118396 0.6 10001352
18:00−8w498659 0.1 1002168
21:00−11nw459235 0.1 100677
9 march, tue
tue900:00−13wnw34969 0.0 100844
03:00−16nw339715 0.0 101025
06:00−17wnw3397100 0.0 101142
09:00−14nnw359498 0.1 1013262
12:00−10nnw358699 0.1 1014626
15:00−9nw4586100 0.1 1015853
18:00−13nnw3592100 0.1 101691
21:00−17n359599 0.1 101982
10 march, wed
wed1000:00−21nnw349638 0.0 102055
03:00−23nnw349933 0.0 102146
06:00−25nnw349875 0.0 102346
09:00−23nnw359643 0.0 1025238
12:00−17nnw458330 0.0 1026511
15:00−15nnw357821 0.0 1026770
18:00−18nnw238817 0.0 102620
21:00−22nnw22929 0.0 102820
11 march, thu
thu1100:00−24wnw12930 0.0 102920
03:00−24wsw22960 0.0 102920
06:00−24wsw23930 0.0 102920
09:00−20sw23890 0.0 1030130
12:00−14sw34770 0.0 1029316
15:00−10ssw46790 0.0 1028415
18:00−13s489384 0.0 1027254
21:00−16s499370 0.1 1027161